FW4741 Weather Reports


time (UTC)temp
C
wind
direction
speed
KPH
gust
KPH
rain 1hr
cm
rain 24hr
cm
rain mn
cm
humidity
%
barometer
mb
20260905220104 23 77 3.2 9.7 0.00 0.00 0.00 64 1020.5
20260905215604 24 77 3.2 9.7 0.00 0.00 0.00 64 1020.4
20260905215104 24 77 3.2 9.7 0.00 0.00 0.00 64 1020.4
20260905214603 24 77 3.2 9.7 0.00 0.00 0.00 62 1020.4
20260905213604 24 77 3.2 9.7 0.00 0.00 0.00 64 1020.5
20260905213104 24 77 3.2 9.7 0.00 0.00 0.00 61 1020.6
20260905212604 23 77 3.2 9.7 0.00 0.00 0.00 63 1020.6
20260905211604 23 77 3.2 9.7 0.00 0.00 0.00 64 1020.7
20260905211104 24 77 3.2 9.7 0.00 0.00 0.00 63 1020.7
20260905210604 24 77 3.2 9.7 0.00 0.00 0.00 63 1020.8
20260905210103 24 77 3.2 9.7 0.00 0.00 0.00 63 1020.8
20260905205604 24 77 3.2 9.7 0.00 0.00 0.00 63 1020.8
20260905205103 24 77 3.2 9.7 0.00 0.00 0.00 64 1020.8
20260905204604 24 77 3.2 9.7 0.00 0.00 0.00 64 1020.9
20260905204104 24 77 3.2 9.7 0.00 0.00 0.00 64 1021.0
20260905203604 24 77 3.2 9.7 0.00 0.00 0.00 64 1020.9
20260905203104 24 77 3.2 9.7 0.00 0.00 0.00 64 1021.1
20260905202604 24 77 3.2 9.7 0.00 0.00 0.00 64 1021.1
20260905201604 24 77 3.2 9.7 0.00 0.00 0.00 64 1021.1
20260905201103 24 77 3.2 9.7 0.00 0.00 0.00 65 1021.2
20260905200604 24 77 3.2 9.7 0.00 0.00 0.00 64 1021.3
20260905200104 24 77 3.2 9.7 0.00 0.00 0.00 65 1021.4
20260905195604 24 77 3.2 9.7 0.00 0.00 0.00 65 1021.5
20260905195104 24 77 3.2 9.7 0.00 0.00 0.00 63 1021.6
20260905194603 24 77 3.2 9.7 0.00 0.00 0.00 65 1021.6
20260905194104 24 77 3.2 9.7 0.00 0.00 0.00 66 1021.5
20260905193604 24 77 3.2 9.7 0.00 0.00 0.00 65 1021.6
20260905193104 25 77 3.2 9.7 0.00 0.00 0.00 62 1021.7
20260905192604 25 77 3.2 9.7 0.00 0.00 0.00 63 1021.7
20260905192104 25 77 3.2 9.7 0.00 0.00 0.00 62 1021.9
20260905191604 25 77 3.2 9.7 0.00 0.00 0.00 63 1021.9
20260905191103 25 77 3.2 9.7 0.00 0.00 0.00 63 1021.9
20260905190604 24 77 3.2 9.7 0.00 0.00 0.00 63 1021.9
20260905190104 24 77 3.2 9.7 0.00 0.00 0.00 64 1022.0
20260905185604 24 77 3.2 9.7 0.00 0.00 0.00 65 1022.0
20260905185104 24 77 3.2 9.7 0.00 0.00 0.00 64 1022.1
20260905184603 24 77 3.2 9.7 0.00 0.00 0.00 65 1022.2
20260905183603 24 77 3.2 9.7 0.00 0.00 0.00 64 1022.3
20260905182603 24 77 3.2 9.7 0.00 0.00 0.00 64 1022.4
20260905182103 23 77 3.2 9.7 0.00 0.00 0.00 65 1022.4
20260905181604 24 77 3.2 9.7 0.00 0.00 0.00 64 1022.5
20260905181103 24 77 3.2 9.7 0.00 0.00 0.00 66 1022.5
20260905180604 24 77 3.2 9.7 0.00 0.00 0.00 64 1022.5
20260905180104 25 77 3.2 9.7 0.00 0.00 0.00 56 1022.7
20260905175603 24 77 3.2 9.7 0.00 0.00 0.00 54 1022.7
20260905175104 24 77 3.2 9.7 0.00 0.00 0.00 56 1022.7
20260905174604 24 77 3.2 9.7 0.00 0.00 0.00 55 1022.7
20260905174104 24 77 3.2 9.7 0.00 0.00 0.00 56 1022.8
20260905173604 23 77 3.2 9.7 0.00 0.00 0.00 57 1022.8
20260905173104 23 77 3.2 9.7 0.00 0.00 0.00 58 1022.8
20260905172604 23 77 3.2 9.7 0.00 0.00 0.00 59 1022.9
20260905172103 24 77 3.2 9.7 0.00 0.00 0.00 57 1022.9
20260905171603 24 77 3.2 9.7 0.00 0.00 0.00 58 1022.9
20260905171104 23 77 3.2 9.7 0.00 0.00 0.00 60 1022.9
20260905170604 23 77 3.2 9.7 0.00 0.00 0.00 63 1022.9
20260905170104 23 77 3.2 9.7 0.00 0.00 0.00 61 1023.0
20260905165604 22 77 3.2 9.7 0.00 0.00 0.00 64 1023.1
20260905165104 22 77 3.2 9.7 0.00 0.00 0.00 66 1023.1
20260905164603 22 77 3.2 9.7 0.00 0.00 0.00 66 1023.1
20260905164104 21 77 3.2 9.7 0.00 0.00 0.00 69 1023.1
20260905163104 21 77 3.2 9.7 0.00 0.00 0.00 70 1023.2
20260905162603 21 77 3.2 9.7 0.00 0.00 0.00 70 1023.2
20260905162104 21 77 3.2 9.7 0.00 0.00 0.00 71 1023.3
20260905161604 21 77 3.2 9.7 0.00 0.00 0.00 72 1023.3
20260905160603 21 77 3.2 9.7 0.00 0.00 0.00 72 1023.4
20260905155604 21 77 3.2 9.7 0.00 0.00 0.00 74 1023.4
20260905155103 21 77 3.2 9.7 0.00 0.00 0.00 74 1023.4
20260905154104 20 77 3.2 9.7 0.00 0.00 0.00 74 1023.5
20260905153603 20 77 3.2 9.7 0.00 0.00 0.00 75 1023.5
20260905153104 20 77 3.2 9.7 0.00 0.00 0.00 74 1023.6
20260905152604 20 77 3.2 9.7 0.00 0.00 0.00 76 1023.5
20260905152103 19 77 3.2 9.7 0.00 0.00 0.00 76 1023.6
20260905151604 18 77 3.2 9.7 0.00 0.00 0.00 78 1023.7
20260905151103 18 77 3.2 9.7 0.00 0.00 0.00 78 1023.8
20260905150603 18 77 3.2 9.7 0.00 0.00 0.00 78 1023.8
20260905150104 18 77 3.2 9.7 0.00 0.00 0.00 80 1023.9
20260905145603 17 77 3.2 9.7 0.00 0.00 0.00 78 1023.9
20260905145104 17 77 3.2 9.7 0.00 0.00 0.00 79 1023.8
20260905144604 17 77 3.2 9.7 0.00 0.00 0.00 81 1023.8
20260905143604 16 77 3.2 9.7 0.00 0.00 0.00 82 1023.7
20260905143103 16 77 3.2 9.7 0.00 0.00 0.00 83 1023.8
20260905141603 15 77 3.2 9.7 0.00 0.00 0.00 85 1023.8
20260905141104 15 77 3.2 9.7 0.00 0.00 0.00 85 1023.7
20260905140604 15 77 3.2 9.7 0.00 0.00 0.00 85 1023.7
20260905140104 15 77 3.2 9.7 0.00 0.00 0.00 86 1023.6
20260905135603 15 77 3.2 9.7 0.00 0.00 0.00 87 1023.6
20260905135104 15 77 3.2 9.7 0.00 0.00 0.00 87 1023.6
20260905134603 15 77 3.2 9.7 0.00 0.00 0.00 87 1023.5
20260905133104 15 77 3.2 9.7 0.00 0.00 0.00 86 1023.4
20260905132603 15 77 3.2 9.7 0.00 0.00 0.00 87 1023.4
20260905132104 15 77 3.2 9.7 0.00 0.00 0.00 87 1023.4
20260905131103 15 77 3.2 9.7 0.00 0.00 0.00 86 1023.4
20260905130603 15 77 3.2 9.7 0.00 0.00 0.00 86 1023.4
20260905130104 15 77 3.2 9.7 0.00 0.00 0.00 86 1023.4
20260905125103 15 77 3.2 9.7 0.00 0.00 0.00 86 1023.3
20260905124604 15 77 3.2 9.7 0.00 0.00 0.00 85 1023.3
20260905124103 15 77 3.2 9.7 0.00 0.00 0.00 85 1023.3
20260905123604 15 77 3.2 9.7 0.00 0.00 0.00 85 1023.3
20260905123103 15 77 3.2 9.7 0.00 0.00 0.00 84 1023.3
20260905122103 15 77 3.2 9.7 0.00 0.00 0.00 84 1023.3
20260905120604 15 77 3.2 9.7 0.00 0.00 0.00 85 1023.1
20260905120104 15 77 3.2 9.7 0.00 0.00 0.00 85 1023.1
20260905115604 15 77 3.2 9.7 0.00 0.00 0.00 85 1023.1
20260905115104 15 77 3.2 9.7 0.00 0.00 0.00 85 1023.1
20260905114604 15 77 3.2 9.7 0.00 0.00 0.00 86 1023.1
20260905114104 14 77 3.2 9.7 0.00 0.00 0.00 87 1023.1
20260905113104 14 77 3.2 9.7 0.00 0.00 0.00 87 1023.1
20260905112604 14 77 3.2 9.7 0.00 0.00 0.00 87 1023.0
20260905112103 14 77 3.2 9.7 0.00 0.00 0.00 88 1023.0
20260905111603 14 77 3.2 9.7 0.00 0.00 0.00 88 1022.9
20260905111103 14 77 3.2 9.7 0.00 0.00 0.00 89 1022.8
20260905110603 14 77 3.2 9.7 0.00 0.00 0.00 89 1022.8
20260905105603 14 77 3.2 9.7 0.00 0.00 0.00 88 1022.7
20260905105104 14 77 3.2 9.7 0.00 0.00 0.00 88 1022.7
20260905104603 14 77 3.2 9.7 0.00 0.00 0.00 87 1022.6
20260905104103 14 77 3.2 9.7 0.00 0.00 0.00 87 1022.7
20260905103604 14 77 3.2 9.7 0.00 0.00 0.00 86 1022.6
20260905103104 14 77 3.2 9.7 0.00 0.00 0.00 86 1022.5
20260905102604 14 77 3.2 9.7 0.00 0.00 0.00 87 1022.4
20260905102104 15 77 3.2 9.7 0.00 0.00 0.00 87 1022.5
20260905101103 15 77 3.2 9.7 0.00 0.00 0.00 87 1022.5
20260905100604 15 77 3.2 9.7 0.00 0.00 0.00 87 1022.5
20260905100104 15 77 3.2 9.7 0.00 0.00 0.00 87 1022.4
20260905095104 14 77 3.2 9.7 0.00 0.00 0.00 87 1022.3
20260905094604 14 77 3.2 9.7 0.00 0.00 0.00 88 1022.3
20260905093104 14 77 3.2 9.7 0.00 0.00 0.00 88 1022.4
20260905092604 14 77 3.2 9.7 0.00 0.00 0.00 88 1022.4
20260905091603 14 77 3.2 9.7 0.00 0.00 0.00 89 1022.5
20260905091103 15 77 3.2 9.7 0.00 0.00 0.00 88 1022.5
20260905090603 15 77 3.2 9.7 0.00 0.00 0.00 87 1022.6
20260905090103 15 77 3.2 9.7 0.00 0.00 0.00 87 1022.8
20260905085604 15 77 3.2 9.7 0.00 0.00 0.00 87 1022.7
20260905085103 15 77 3.2 9.7 0.00 0.00 0.00 87 1022.6
20260905084603 15 77 3.2 9.7 0.00 0.00 0.00 87 1022.6
20260905084103 15 77 3.2 9.7 0.00 0.00 0.00 87 1022.6
20260905083603 15 77 3.2 9.7 0.00 0.00 0.00 87 1022.7
20260905082603 15 77 3.2 9.7 0.00 0.00 0.00 87 1022.7
20260905082104 15 77 3.2 9.7 0.00 0.00 0.00 87 1022.7
20260905081604 15 77 3.2 9.7 0.00 0.00 0.00 87 1022.7
20260905081103 15 77 3.2 9.7 0.00 0.00 0.00 86 1022.8
20260905080604 15 77 3.2 9.7 0.00 0.00 0.00 86 1022.7
20260905080104 15 77 3.2 9.7 0.00 0.00 0.00 86 1022.6
20260905075603 15 77 3.2 9.7 0.00 0.00 0.00 86 1022.7
20260905075104 15 77 3.2 9.7 0.00 0.00 0.00 86 1022.8
20260905073604 15 77 3.2 9.7 0.00 0.00 0.00 87 1022.8
20260905073104 15 77 3.2 9.7 0.00 0.00 0.00 87 1022.8
20260905072604 15 77 3.2 9.7 0.00 0.00 0.00 88 1022.8
20260905072104 15 77 3.2 9.7 0.00 0.00 0.00 88 1022.8
20260905071603 15 77 3.2 9.7 0.00 0.00 0.00 88 1022.8
20260905070604 15 77 3.2 9.7 0.00 0.00 0.00 86 1022.9
20260905070104 15 77 3.2 9.7 0.00 0.00 0.00 86 1022.9
20260905065604 15 77 3.2 9.7 0.00 0.00 0.00 86 1023.0
20260905065104 15 77 3.2 9.7 0.00 0.00 0.00 86 1023.1
20260905064603 15 77 3.2 9.7 0.00 0.00 0.00 86 1023.1
20260905063604 15 77 3.2 9.7 0.00 0.00 0.00 86 1023.2
20260905062604 15 77 3.2 9.7 0.00 0.00 0.00 85 1023.2
20260905062103 15 77 3.2 9.7 0.00 0.00 0.00 86 1023.2
20260905061604 15 77 3.2 9.7 0.00 0.00 0.00 85 1023.2
20260905061103 15 77 3.2 9.7 0.00 0.00 0.00 86 1023.1
20260905060603 15 77 3.2 9.7 0.00 0.00 0.00 85 1023.1
20260905060103 16 77 3.2 9.7 0.00 0.00 0.00 85 1023.1
20260905055603 15 77 3.2 9.7 0.00 0.00 0.00 85 1023.1
20260905055104 15 77 3.2 9.7 0.00 0.00 0.00 86 1023.1
20260905054604 16 77 3.2 9.7 0.00 0.00 0.00 85 1023.1
20260905054104 16 77 3.2 9.7 0.00 0.00 0.00 84 1023.1
20260905053604 16 77 3.2 9.7 0.00 0.00 0.00 84 1023.1
20260905053104 16 77 3.2 9.7 0.00 0.00 0.00 84 1023.0
20260905052103 16 77 3.2 9.7 0.00 0.00 0.00 84 1023.1
20260905051604 16 77 3.2 9.7 0.00 0.00 0.00 83 1023.0
20260905051104 16 77 3.2 9.7 0.00 0.00 0.00 84 1023.0
20260905050604 16 77 3.2 9.7 0.00 0.00 0.00 84 1023.0
20260905050104 16 77 3.2 9.7 0.00 0.00 0.00 84 1023.1
20260905045604 16 77 3.2 9.7 0.00 0.00 0.00 84 1023.1
20260905045103 16 77 3.2 9.7 0.00 0.00 0.00 85 1023.1
20260905044603 16 77 3.2 9.7 0.00 0.00 0.00 85 1023.1
20260905044103 16 77 3.2 9.7 0.00 0.00 0.00 85 1023.1
20260905043604 16 77 3.2 9.7 0.00 0.00 0.00 87 1023.1
20260905042603 16 77 3.2 9.7 0.00 0.00 0.00 86 1023.2
20260905042103 16 77 3.2 9.7 0.00 0.00 0.00 86 1023.2
20260905041604 16 77 3.2 9.7 0.00 0.00 0.00 85 1023.2
20260905040604 16 77 3.2 9.7 0.00 0.00 0.00 86 1023.2
20260905040104 16 77 3.2 9.7 0.00 0.00 0.00 86 1023.2
20260905035603 16 77 3.2 9.7 0.00 0.00 0.00 86 1023.2
20260905035104 16 77 3.2 9.7 0.00 0.00 0.00 86 1023.2
20260905034604 16 77 3.2 9.7 0.00 0.00 0.00 86 1023.2
20260905034104 16 77 3.2 9.7 0.00 0.00 0.00 86 1023.2
20260905033604 16 77 3.2 9.7 0.00 0.00 0.00 87 1023.2
20260905033103 16 77 3.2 9.7 0.00 0.00 0.00 87 1023.1
20260905032604 16 77 3.2 9.7 0.00 0.00 0.00 88 1023.1
20260905032103 16 77 3.2 9.7 0.00 0.00 0.00 88 1023.1
20260905031605 16 77 3.2 9.7 0.00 0.00 0.00 89 1023.2
20260905031103 16 77 3.2 9.7 0.00 0.00 0.00 89 1023.1
20260905030603 16 77 3.2 9.7 0.00 0.00 0.00 89 1023.1
20260905030104 16 77 3.2 9.7 0.00 0.00 0.00 88 1022.9
20260905025603 16 77 3.2 9.7 0.00 0.00 0.00 87 1022.9
20260905025103 16 77 3.2 9.7 0.00 0.00 0.00 86 1022.8
20260905024104 16 77 3.2 9.7 0.00 0.00 0.00 85 1022.7
20260905023604 17 77 3.2 9.7 0.00 0.00 0.00 85 1022.6
20260905023103 16 77 3.2 9.7 0.00 0.00 0.00 86 1022.5
20260905022603 16 77 3.2 9.7 0.00 0.00 0.00 86 1022.6
20260905022104 17 77 3.2 9.7 0.00 0.00 0.00 85 1022.6
20260905021604 17 77 3.2 9.7 0.00 0.00 0.00 84 1022.6
20260905021104 17 77 3.2 9.7 0.00 0.00 0.00 84 1022.5
20260905020604 17 77 3.2 9.7 0.00 0.00 0.00 84 1022.5
20260905020104 17 77 3.2 9.7 0.00 0.00 0.00 85 1022.4
20260905015603 17 77 3.2 9.7 0.00 0.00 0.00 85 1022.4
20260905015104 17 77 3.2 9.7 0.00 0.00 0.00 85 1022.3
20260905014604 17 77 3.2 9.7 0.00 0.00 0.00 85 1022.3
20260905013604 17 77 3.2 9.7 0.00 0.00 0.00 85 1022.2
20260905013104 17 77 3.2 9.7 0.00 0.00 0.00 85 1022.2
20260905012604 17 77 3.2 9.7 0.00 0.00 0.00 85 1022.2
20260905012103 17 77 3.2 9.7 0.00 0.00 0.00 86 1022.1
20260905011603 17 77 3.2 9.7 0.00 0.00 0.00 85 1022.1
20260905011103 17 77 3.2 9.7 0.00 0.00 0.00 85 1022.0
20260905010104 17 77 3.2 9.7 0.00 0.00 0.00 86 1021.8
20260905005603 17 77 3.2 9.7 0.00 0.00 0.00 87 1021.8
20260905004606 17 77 3.2 9.7 0.00 0.00 0.00 86 1021.8
20260905004103 17 77 3.2 9.7 0.00 0.00 0.00 86 1021.7
20260905003604 17 77 3.2 9.7 0.00 0.00 0.00 85 1021.6
20260905003103 17 77 3.2 9.7 0.00 0.00 0.00 85 1021.6
20260905002604 17 77 3.2 9.7 0.00 0.00 0.00 84 1021.6
20260905002103 17 77 3.2 9.7 0.00 0.00 0.00 83 1021.6
20260905001104 18 77 3.2 9.7 0.00 0.00 0.00 81 1021.5
20260905000604 18 77 3.2 9.7 0.00 0.00 0.00 78 1021.4
20260904235603 18 77 3.2 9.7 0.00 0.00 0.00 76 1021.3
20260904235104 18 77 3.2 9.7 0.00 0.00 0.00 80 1021.2
20260904234603 17 77 3.2 9.7 0.00 0.00 0.00 82 1021.3
20260904234104 18 77 3.2 9.7 0.00 0.00 0.00 82 1021.3
20260904233604 18 77 3.2 9.7 0.00 0.00 0.00 80 1021.3
20260904232604 18 77 3.2 9.7 0.00 0.00 0.00 79 1021.3
20260904232103 18 77 3.2 9.7 0.00 0.00 0.00 79 1021.3
20260904231604 19 77 3.2 9.7 0.00 0.00 0.00 81 1021.3
20260904231104 20 77 3.2 9.7 0.00 0.00 0.00 80 1021.4
20260904230104 22 77 3.2 9.7 0.00 0.00 0.00 71 1021.2
20260904225104 23 77 3.2 9.7 0.00 0.00 0.00 63 1021.4
20260904224603 24 77 3.2 9.7 0.00 0.00 0.00 64 1021.3
20260904224104 24 77 3.2 9.7 0.00 0.00 0.00 61 1021.4
20260904223104 24 77 3.2 9.7 0.00 0.00 0.00 62 1021.3
20260904222603 24 77 3.2 9.7 0.00 0.00 0.00 62 1021.3
20260904221103 24 77 3.2 9.7 0.00 0.00 0.00 60 1021.2
20260904220604 24 77 3.2 9.7 0.00 0.00 0.00 61 1021.1